124  
ASUS43 KGLD 161259  
RWRGLD  
 
GOODLAND FORECAST AREA HOURLY WEATHER ROUNDUP  
NATIONAL WEATHER SERVICE GOODLAND KS  
700 AM MDT TUE JUL 16 2019  
   
..OFFICIAL OBSERVATIONS
 
 
 
CITY SKY/WX TMP DP RH WIND PRES REMARKS
 
GOODLAND KS SUNNY 69 60 73 CALM 30.03R  
HILL CITY KS SUNNY 74 67 78 NE8 29.95S  
IMPERIAL NEB SUNNY 67 60 78 NE5 30.03R  
MCCOOK NEB MOSUNNY 70 65 84 E14 29.98S  
AKRON CO SUNNY 63 60 90 E7 30.10R  
BURLINGTON CO SUNNY 68 60 75 CALM 30.07S  
LIMON CO SUNNY 61 57 87 N3 30.11F  

 
   
..UNOFFICIAL OBSERVATIONS
 
 
 
CITY SKY/WX TMP DP RH WIND PRES REMARKS
 
SHARON SPRINGS N/A 71 60 69 CALM N/A  
KIT CARSON CO N/A 67 60 79 MISG N/A  
YUMA CO FAIR 61 57 88 NE5 30.08R  

 
 
 
CLICK HERE TO GO TO PREVIOUS BULLETINS.

The Nexlab KS Page
The Nexlab CO Page
The Nexlab NE Page Main Text Page